Home   Weather   Northeim   Past weeks

Flag for Germany Past Weather in Northeim, Lower Saxony, Germany — Yesterday and Last 2 Weeks

Now
48 °F

Scattered clouds.


Feels Like: 46 °F
Forecast: 29 / 58 °F
Wind: 5 mph from Northeast

Location: Kassel / Calden

Current Time: Apr 29, 2017 at 7:57:58 pm

Latest Report: Apr 29, 2017 at 7:20 pm


Visibility: N/A

Pressure: 30.07 "Hg

Humidity: 50%

Dew Point: 30 °F

Location of NortheimLocation

Past Weather in Northeim — Graph

°F

Northeim Temperature Yesterday

Maximum temperature yesterday: 52 °F (at 2:50 pm)
Minimum temperature yesterday: 30 °F (at 2:50 am)
Average temperature yesterday: 44 °F

High & Low Weather Summary for the Past Weeks

 TemperatureHumidityPressure
High57 °F (Apr 24, 4:20 pm)100% (Apr 15, 2:50 pm)30.60 "Hg (Apr 15, 2:50 pm)
Low25 °F (Apr 20, 5:20 am)37% (Apr 26, 5:20 pm)29.65 "Hg (Apr 25, 6:50 am)
Average43 °F66%30.09 "Hg
* Reported Apr 14 6:20 pm — Apr 29 6:20 pm, Northeim, Weather by CustomWeather, © 2017

Note: Actual official high and low records may vary slightly from our data, if they occured in-between our weather recording intervals... More about our weather records

Advertising

Northeim Weather History for the Previous 24 Hours

Scroll right to see more
 ConditionsComfort  
Time TempWeatherWind HumidityBarometerVisibility
6:20 pm
Sat, Apr 29
48 °FPartly sunny.6 mph50%30.07 "HgN/A
5:50 pm48 °FPartly sunny.6 mph46%30.07 "HgN/A
5:20 pm48 °FBroken clouds.6 mph46%30.07 "HgN/A
4:50 pm48 °FBroken clouds.5 mph46%30.07 "HgN/A
4:20 pm48 °FBroken clouds.9 mph46%30.07 "HgN/A
3:50 pm48 °FBroken clouds.9 mph46%30.07 "HgN/A
3:20 pm48 °FPartly sunny.10 mph40%30.07 "HgN/A
2:20 pm48 °FBroken clouds.9 mph46%30.07 "HgN/A
1:50 pm46 °FMore clouds than sun.9 mph50%30.07 "HgN/A
1:20 pm46 °FBroken clouds.9 mph50%30.07 "HgN/A
12:50 pm46 °FBroken clouds.8 mph46%30.07 "HgN/A
12:20 pm46 °FBroken clouds.9 mph50%30.07 "HgN/A
11:50 am45 °FScattered clouds.10 mph53%30.07 "HgN/A
11:20 am45 °FPartly sunny.8 mph57%30.07 "HgN/A
10:50 am45 °FPartly sunny.9 mph57%30.07 "HgN/A
10:20 am45 °FBroken clouds.9 mph66%30.04 "HgN/A
9:20 am43 °FMore clouds than sun.8 mph81%30.04 "HgN/A
8:50 am41 °FMore clouds than sun.8 mph87%30.04 "HgN/A
8:20 am41 °FMore clouds than sun.7 mph87%30.04 "HgN/A
7:50 am41 °FMore clouds than sun.6 mph87%30.04 "HgN/A
7:20 am39 °FBroken clouds.6 mph100%30.01 "HgN/A
7:50 pm
Fri, Apr 28
48 °FSunny.6 mph54%29.92 "Hg10 mi
7:20 pm52 °FScattered clouds.6 mph47%29.92 "HgN/A
Weather by CustomWeather, © 2017

See weather overviewHow to use our weather pages